owner,sensor,date,latitude,longitude,vertical_datum,wind_speed,wind_to_direction,wind_speed_of_gust,qcFlag 
NDBC,ioos:station:wmo:42056:1,2017-06-01T00:40:00Z,19.8020,-84.8570,5.0,7.0,110.0,9.0,'1111122,1111122,1111122' 
NDBC,ioos:station:wmo:42056:1,2017-06-01T01:40:00Z,19.8020,-84.8570,5.0,8.0,100.0,10.0,'1111122,1111122,1111122' 
NDBC,ioos:station:wmo:42056:1,2017-06-01T02:40:00Z,19.8020,-84.8570,5.0,7.0,110.0,9.0,'1111122,1111122,1111122' 
NDBC,ioos:station:wmo:42056:1,2017-06-01T03:50:00Z,19.8020,-84.8570,5.0,9.0,110.0,11.0,'1111122,1111122,1111122' 
NDBC,ioos:station:wmo:42056:1,2017-06-01T04:40:00Z,19.8020,-84.8570,5.0,8.0,110.0,10.0,'1111122,1111122,1111122' 
NDBC,ioos:station:wmo:42056:1,2017-06-01T05:50:00Z,19.8020,-84.8570,5.0,8.0,110.0,10.0,'1111122,1111122,1111122' 
NDBC,ioos:station:wmo:42056:1,2017-06-01T06:40:00Z,19.8020,-84.8570,5.0,8.0,110.0,10.0,'1111122,1111122,1111122' 
NDBC,ioos:station:wmo:42056:1,2017-06-01T07:50:00Z,19.8020,-84.8570,5.0,9.0,110.0,11.0,'1111122,1111122,1111122' 
NDBC,ioos:station:wmo:42056:1,2017-06-01T08:40:00Z,19.8020,-84.8570,5.0,8.0,120.0,10.0,'1111122,1111122,1111122' 
NDBC,ioos:station:wmo:42056:1,2017-06-01T09:40:00Z,19.8020,-84.8570,5.0,8.0,120.0,9.0,'1111122,1111122,1111122' 
NDBC,ioos:station:wmo:42056:1,2017-06-01T10:40:00Z,19.8020,-84.8570,5.0,8.0,100.0,10.0,'1111122,1111122,1111122' 
NDBC,ioos:station:wmo:42056:1,2017-06-01T11:40:00Z,19.8020,-84.8570,5.0,8.0,110.0,10.0,'1111122,1111122,1111122' 
NDBC,ioos:station:wmo:42056:1,2017-06-01T12:40:00Z,19.8020,-84.8570,5.0,8.0,110.0,10.0,'1111122,1111122,1111122' 
NDBC,ioos:station:wmo:42056:1,2017-06-01T13:40:00Z,19.8020,-84.8570,5.0,8.0,110.0,10.0,'1111122,1111122,1111122' 
NDBC,ioos:station:wmo:42056:1,2017-06-01T14:40:00Z,19.8020,-84.8570,5.0,8.0,110.0,10.0,'1111122,1111122,1111122' 
NDBC,ioos:station:wmo:42056:1,2017-06-01T15:40:00Z,19.8020,-84.8570,5.0,8.0,120.0,9.0,'1111122,1111122,1111122' 
NDBC,ioos:station:wmo:42056:1,2017-06-01T16:50:00Z,19.8020,-84.8570,5.0,7.0,130.0,9.0,'1111122,1111122,1111122' 
NDBC,ioos:station:wmo:42056:1,2017-06-01T17:40:00Z,19.8020,-84.8570,5.0,8.0,120.0,10.0,'1111122,1111122,1111122' 
NDBC,ioos:station:wmo:42056:1,2017-06-01T18:40:00Z,19.8020,-84.8570,5.0,8.0,120.0,9.0,'1111122,1111122,1111122' 
NDBC,ioos:station:wmo:42056:1,2017-06-01T19:40:00Z,19.8020,-84.8570,5.0,8.0,110.0,10.0,'1111122,1111122,1111122' 
NDBC,ioos:station:wmo:42056:1,2017-06-01T20:40:00Z,19.8020,-84.8570,5.0,9.0,110.0,11.0,'1111122,1111122,1111122' 
NDBC,ioos:station:wmo:42056:1,2017-06-01T21:40:00Z,19.8020,-84.8570,5.0,8.0,110.0,10.0,'1111122,1111122,1111122' 
NDBC,ioos:station:wmo:42056:1,2017-06-01T22:40:00Z,19.8020,-84.8570,5.0,8.0,120.0,9.0,'1111122,1111122,1111122' 
NDBC,ioos:station:wmo:42056:1,2017-06-01T23:40:00Z,19.8020,-84.8570,5.0,8.0,110.0,9.0,'1111122,1111122,1111122' 
NDBC,ioos:station:wmo:42056:1,2017-06-02T00:40:00Z,19.8020,-84.8570,5.0,8.0,110.0,9.0,'1111122,1111122,1111122' 
NDBC,ioos:station:wmo:42056:1,2017-06-02T01:40:00Z,19.8020,-84.8570,5.0,8.0,120.0,9.0,'1111122,1111122,1111122' 
NDBC,ioos:station:wmo:42056:1,2017-06-02T02:40:00Z,19.8020,-84.8570,5.0,8.0,120.0,10.0,'1111122,1111122,1111122' 
NDBC,ioos:station:wmo:42056:1,2017-06-02T03:50:00Z,19.8020,-84.8570,5.0,8.0,120.0,10.0,'1111122,1111122,1111122' 
NDBC,ioos:station:wmo:42056:1,2017-06-02T04:50:00Z,19.8020,-84.8570,5.0,8.0,120.0,10.0,'1111122,1111122,1111122' 
NDBC,ioos:station:wmo:42056:1,2017-06-02T05:40:00Z,19.8020,-84.8570,5.0,7.0,120.0,8.0,'1111122,1111122,1111122' 
NDBC,ioos:station:wmo:42056:1,2017-06-02T06:40:00Z,19.8020,-84.8570,5.0,8.0,110.0,10.0,'1111122,1111122,1111122' 
NDBC,ioos:station:wmo:42056:1,2017-06-02T07:40:00Z,19.8020,-84.8570,5.0,8.0,120.0,10.0,'1111122,1111122,1111122' 
NDBC,ioos:station:wmo:42056:1,2017-06-02T08:40:00Z,19.8020,-84.8570,5.0,8.0,120.0,9.0,'1111122,1111122,1111122' 
NDBC,ioos:station:wmo:42056:1,2017-06-02T09:50:00Z,19.8020,-84.8570,5.0,7.0,110.0,9.0,'1111122,1111122,1111122' 
NDBC,ioos:station:wmo:42056:1,2017-06-02T10:40:00Z,19.8020,-84.8570,5.0,8.0,110.0,9.0,'1111122,1111122,1111122' 
NDBC,ioos:station:wmo:42056:1,2017-06-02T11:40:00Z,19.8020,-84.8570,5.0,8.0,110.0,10.0,'1111122,1111122,1111122' 
NDBC,ioos:station:wmo:42056:1,2017-06-02T12:40:00Z,19.8020,-84.8570,5.0,8.0,120.0,11.0,'1111122,1111122,1111122' 
NDBC,ioos:station:wmo:42056:1,2017-06-02T13:40:00Z,19.8020,-84.8570,5.0,8.0,120.0,10.0,'1111122,1111122,1111122' 
NDBC,ioos:station:wmo:42056:1,2017-06-02T14:40:00Z,19.8020,-84.8570,5.0,8.0,120.0,9.0,'1111122,1111122,1111122' 
NDBC,ioos:station:wmo:42056:1,2017-06-02T15:40:00Z,19.8020,-84.8570,5.0,8.0,120.0,10.0,'1111122,1111122,1111122' 
NDBC,ioos:station:wmo:42056:1,2017-06-02T16:30:00Z,19.8020,-84.8570,5.0,8.0,110.0,10.0,'1111122,1111122,1111122' 
NDBC,ioos:station:wmo:42056:1,2017-06-02T17:40:00Z,19.8020,-84.8570,5.0,7.0,110.0,9.0,'1111122,1111122,1111122' 
NDBC,ioos:station:wmo:42056:1,2017-06-02T18:40:00Z,19.8020,-84.8570,5.0,8.0,100.0,10.0,'1111122,1111122,1111122' 
NDBC,ioos:station:wmo:42056:1,2017-06-02T19:40:00Z,19.8020,-84.8570,5.0,7.0,110.0,8.0,'1111122,1111122,1111122' 
NDBC,ioos:station:wmo:42056:1,2017-06-02T20:40:00Z,19.8020,-84.8570,5.0,7.0,110.0,8.0,'1111122,1111122,1111122' 
NDBC,ioos:station:wmo:42056:1,2017-06-02T21:30:00Z,19.8020,-84.8570,5.0,7.0,100.0,9.0,'1111122,1111122,1111122' 
NDBC,ioos:station:wmo:42056:1,2017-06-02T22:30:00Z,19.8020,-84.8570,5.0,6.0,110.0,8.0,'1111122,1111122,1111122' 
NDBC,ioos:station:wmo:42056:1,2017-06-02T23:40:00Z,19.8020,-84.8570,5.0,7.0,100.0,8.0,'1111122,1111122,1111122' 
NDBC,ioos:station:wmo:42056:1,2017-06-03T00:30:00Z,19.8020,-84.8570,5.0,8.0,110.0,9.0,'1111122,1111122,1111122' 
NDBC,ioos:station:wmo:42056:1,2017-06-03T01:50:00Z,19.8020,-84.8570,5.0,7.0,110.0,8.0,'1111122,1111122,1111122' 
NDBC,ioos:station:wmo:42056:1,2017-06-03T02:40:00Z,19.8020,-84.8570,5.0,6.0,110.0,8.0,'1111122,1111122,1111122' 
NDBC,ioos:station:wmo:42056:1,2017-06-03T03:30:00Z,19.8020,-84.8570,5.0,7.0,110.0,8.0,'1111122,1111122,1111122' 
NDBC,ioos:station:wmo:42056:1,2017-06-03T04:40:00Z,19.8020,-84.8570,5.0,8.0,110.0,9.0,'1111122,1111122,1111122' 
NDBC,ioos:station:wmo:42056:1,2017-06-03T05:40:00Z,19.8020,-84.8570,5.0,7.0,110.0,9.0,'1111122,1111122,1111122' 
NDBC,ioos:station:wmo:42056:1,2017-06-03T06:40:00Z,19.8020,-84.8570,5.0,7.0,120.0,8.0,'1111122,1111122,1111122' 
NDBC,ioos:station:wmo:42056:1,2017-06-03T07:40:00Z,19.8020,-84.8570,5.0,7.0,110.0,9.0,'1111122,1111122,1111122' 
NDBC,ioos:station:wmo:42056:1,2017-06-03T08:40:00Z,19.8020,-84.8570,5.0,8.0,110.0,9.0,'1111122,1111122,1111122' 
NDBC,ioos:station:wmo:42056:1,2017-06-03T09:40:00Z,19.8020,-84.8570,5.0,7.0,110.0,9.0,'1111122,1111122,1111122' 
NDBC,ioos:station:wmo:42056:1,2017-06-03T10:40:00Z,19.8020,-84.8570,5.0,7.0,120.0,9.0,'1111122,1111122,1111122' 
NDBC,ioos:station:wmo:42056:1,2017-06-03T11:40:00Z,19.8020,-84.8570,5.0,7.0,120.0,9.0,'1111122,1111122,1111122' 
NDBC,ioos:station:wmo:42056:1,2017-06-03T12:30:00Z,19.8020,-84.8570,5.0,7.0,120.0,8.0,'1111122,1111122,1111122' 
NDBC,ioos:station:wmo:42056:1,2017-06-03T13:40:00Z,19.8020,-84.8570,5.0,7.0,120.0,8.0,'1111122,1111122,1111122' 
NDBC,ioos:station:wmo:42056:1,2017-06-03T14:40:00Z,19.8020,-84.8570,5.0,8.0,120.0,10.0,'1111122,1111122,1111122' 
NDBC,ioos:station:wmo:42056:1,2017-06-03T15:40:00Z,19.8020,-84.8570,5.0,7.0,120.0,9.0,'1111122,1111122,1111122' 
NDBC,ioos:station:wmo:42056:1,2017-06-03T16:30:00Z,19.8020,-84.8570,5.0,5.0,130.0,7.0,'1111122,1111122,1111122' 
NDBC,ioos:station:wmo:42056:1,2017-06-03T17:40:00Z,19.8020,-84.8570,5.0,7.0,120.0,8.0,'1111122,1111122,1111122' 
NDBC,ioos:station:wmo:42056:1,2017-06-03T18:40:00Z,19.8020,-84.8570,5.0,7.0,110.0,9.0,'1111122,1111122,1111122' 
NDBC,ioos:station:wmo:42056:1,2017-06-03T19:40:00Z,19.8020,-84.8570,5.0,7.0,110.0,9.0,'1111122,1111122,1111122' 
NDBC,ioos:station:wmo:42056:1,2017-06-03T20:40:00Z,19.8020,-84.8570,5.0,7.0,100.0,9.0,'1111122,1111122,1111122' 
NDBC,ioos:station:wmo:42056:1,2017-06-03T21:50:00Z,19.8020,-84.8570,5.0,7.0,100.0,9.0,'1111122,1111122,1111122' 
NDBC,ioos:station:wmo:42056:1,2017-06-03T22:50:00Z,19.8020,-84.8570,5.0,7.0,100.0,9.0,'1111122,1111122,1111122' 
NDBC,ioos:station:wmo:42056:1,2017-06-03T23:40:00Z,19.8020,-84.8570,5.0,7.0,100.0,9.0,'1111122,1111122,1111122' 
NDBC,ioos:station:wmo:42056:1,2017-06-04T00:40:00Z,19.8020,-84.8570,5.0,7.0,100.0,8.0,'1111122,1111122,1111122' 
NDBC,ioos:station:wmo:42056:1,2017-06-04T01:40:00Z,19.8020,-84.8570,5.0,7.0,100.0,9.0,'1111122,1111122,1111122' 
NDBC,ioos:station:wmo:42056:1,2017-06-04T02:40:00Z,19.8020,-84.8570,5.0,7.0,100.0,9.0,'1111122,1111122,1111122' 
NDBC,ioos:station:wmo:42056:1,2017-06-04T03:40:00Z,19.8020,-84.8570,5.0,7.0,110.0,9.0,'1111122,1111122,1111122' 
NDBC,ioos:station:wmo:42056:1,2017-06-04T04:40:00Z,19.8020,-84.8570,5.0,6.0,100.0,7.0,'1111122,1111122,1111122' 
NDBC,ioos:station:wmo:42056:1,2017-06-04T05:40:00Z,19.8020,-84.8570,5.0,7.0,110.0,8.0,'1111122,1111122,1111122' 
NDBC,ioos:station:wmo:42056:1,2017-06-04T06:40:00Z,19.8020,-84.8570,5.0,7.0,110.0,9.0,'1111122,1111122,1111122' 
NDBC,ioos:station:wmo:42056:1,2017-06-04T07:40:00Z,19.8020,-84.8570,5.0,7.0,110.0,9.0,'1111122,1111122,1111122' 
NDBC,ioos:station:wmo:42056:1,2017-06-04T08:40:00Z,19.8020,-84.8570,5.0,7.0,110.0,9.0,'1111122,1111122,1111122' 
NDBC,ioos:station:wmo:42056:1,2017-06-04T09:40:00Z,19.8020,-84.8570,5.0,7.0,110.0,8.0,'1111122,1111122,1111122' 
NDBC,ioos:station:wmo:42056:1,2017-06-04T10:30:00Z,19.8020,-84.8570,5.0,6.0,110.0,8.0,'1111122,1111122,1111122' 
NDBC,ioos:station:wmo:42056:1,2017-06-04T11:40:00Z,19.8020,-84.8570,5.0,8.0,110.0,9.0,'1111122,1111122,1111122' 
NDBC,ioos:station:wmo:42056:1,2017-06-04T12:40:00Z,19.8020,-84.8570,5.0,7.0,110.0,8.0,'1111122,1111122,1111122' 
NDBC,ioos:station:wmo:42056:1,2017-06-04T13:40:00Z,19.8020,-84.8570,5.0,8.0,120.0,10.0,'1111122,1111122,1111122' 
NDBC,ioos:station:wmo:42056:1,2017-06-04T14:40:00Z,19.8020,-84.8570,5.0,8.0,120.0,10.0,'1111122,1111122,1111122' 
NDBC,ioos:station:wmo:42056:1,2017-06-04T15:40:00Z,19.8020,-84.8570,5.0,8.0,120.0,10.0,'1111122,1111122,1111122' 
NDBC,ioos:station:wmo:42056:1,2017-06-04T16:50:00Z,19.8020,-84.8570,5.0,8.0,120.0,10.0,'1111122,1111122,1111122' 
NDBC,ioos:station:wmo:42056:1,2017-06-04T17:40:00Z,19.8020,-84.8570,5.0,9.0,120.0,11.0,'1111122,1111122,1111122' 
NDBC,ioos:station:wmo:42056:1,2017-06-04T18:30:00Z,19.8020,-84.8570,5.0,8.0,120.0,10.0,'1111122,1111122,1111122' 
NDBC,ioos:station:wmo:42056:1,2017-06-04T19:40:00Z,19.8020,-84.8570,5.0,7.0,110.0,9.0,'1111122,1111122,1111122' 
NDBC,ioos:station:wmo:42056:1,2017-06-04T20:40:00Z,19.8020,-84.8570,5.0,7.0,120.0,9.0,'1111122,1111122,1111122' 
NDBC,ioos:station:wmo:42056:1,2017-06-04T21:40:00Z,19.8020,-84.8570,5.0,6.0,120.0,8.0,'1111122,1111122,1111122' 
NDBC,ioos:station:wmo:42056:1,2017-06-04T22:40:00Z,19.8020,-84.8570,5.0,7.0,110.0,8.0,'1111122,1111122,1111122' 
NDBC,ioos:station:wmo:42056:1,2017-06-04T23:40:00Z,19.8020,-84.8570,5.0,6.0,120.0,8.0,'1111122,1111122,1111122' 
NDBC,ioos:station:wmo:42056:1,2017-06-05T00:50:00Z,19.8020,-84.8570,5.0,7.0,120.0,8.0,'1111122,1111122,1111122' 
NDBC,ioos:station:wmo:42056:1,2017-06-05T01:50:00Z,19.8020,-84.8570,5.0,7.0,110.0,8.0,'1111122,1111122,1111122' 
NDBC,ioos:station:wmo:42056:1,2017-06-05T02:40:00Z,19.8020,-84.8570,5.0,7.0,110.0,9.0,'1111122,1111122,1111122' 
NDBC,ioos:station:wmo:42056:1,2017-06-05T03:40:00Z,19.8020,-84.8570,5.0,8.0,110.0,10.0,'1111122,1111122,1111122' 
NDBC,ioos:station:wmo:42056:1,2017-06-05T04:40:00Z,19.8020,-84.8570,5.0,8.0,120.0,9.0,'1111122,1111122,1111122' 
NDBC,ioos:station:wmo:42056:1,2017-06-05T05:40:00Z,19.8020,-84.8570,5.0,7.0,120.0,9.0,'1111122,1111122,1111122' 
NDBC,ioos:station:wmo:42056:1,2017-06-05T06:40:00Z,19.8020,-84.8570,5.0,8.0,120.0,10.0,'1111122,1111122,1111122' 
NDBC,ioos:station:wmo:42056:1,2017-06-05T07:40:00Z,19.8020,-84.8570,5.0,8.0,120.0,9.0,'1111122,1111122,1111122' 
NDBC,ioos:station:wmo:42056:1,2017-06-05T08:40:00Z,19.8020,-84.8570,5.0,8.0,120.0,9.0,'1111122,1111122,1111122' 
NDBC,ioos:station:wmo:42056:1,2017-06-05T09:40:00Z,19.8020,-84.8570,5.0,9.0,120.0,10.0,'1111122,1111122,1111122' 
NDBC,ioos:station:wmo:42056:1,2017-06-05T10:40:00Z,19.8020,-84.8570,5.0,10.0,120.0,12.0,'1111122,1111122,1111122' 
NDBC,ioos:station:wmo:42056:1,2017-06-05T11:40:00Z,19.8020,-84.8570,5.0,9.0,130.0,11.0,'1111122,1111122,1111122' 
NDBC,ioos:station:wmo:42056:1,2017-06-05T12:40:00Z,19.8020,-84.8570,5.0,8.0,120.0,11.0,'1111122,1111122,1111122' 
NDBC,ioos:station:wmo:42056:1,2017-06-05T13:40:00Z,19.8020,-84.8570,5.0,9.0,130.0,10.0,'1111122,1111122,1111122' 
NDBC,ioos:station:wmo:42056:1,2017-06-05T14:40:00Z,19.8020,-84.8570,5.0,9.0,130.0,11.0,'1111122,1111122,1111122' 
NDBC,ioos:station:wmo:42056:1,2017-06-05T15:40:00Z,19.8020,-84.8570,5.0,9.0,130.0,11.0,'1111122,1111122,1111122' 
NDBC,ioos:station:wmo:42056:1,2017-06-05T16:40:00Z,19.8020,-84.8570,5.0,9.0,140.0,11.0,'1111122,1111122,1111122' 
NDBC,ioos:station:wmo:42056:1,2017-06-05T17:40:00Z,19.8020,-84.8570,5.0,9.0,130.0,11.0,'1111122,1111122,1111122' 
NDBC,ioos:station:wmo:42056:1,2017-06-05T18:40:00Z,19.8020,-84.8570,5.0,10.0,140.0,12.0,'1111122,1111122,1111122' 
NDBC,ioos:station:wmo:42056:1,2017-06-05T19:40:00Z,19.8020,-84.8570,5.0,10.0,140.0,12.0,'1111122,1111122,1111122' 
NDBC,ioos:station:wmo:42056:1,2017-06-05T20:50:00Z,19.8020,-84.8570,5.0,9.0,140.0,11.0,'1111122,1111122,1111122' 
NDBC,ioos:station:wmo:42056:1,2017-06-05T21:40:00Z,19.8020,-84.8570,5.0,9.0,130.0,11.0,'1111122,1111122,1111122' 
NDBC,ioos:station:wmo:42056:1,2017-06-05T22:40:00Z,19.8020,-84.8570,5.0,9.0,140.0,11.0,'1111122,1111122,1111122' 
NDBC,ioos:station:wmo:42056:1,2017-06-05T23:40:00Z,19.8020,-84.8570,5.0,9.0,140.0,11.0,'1111122,1111122,1111122' 
NDBC,ioos:station:wmo:42056:1,2017-06-06T00:40:00Z,19.8020,-84.8570,5.0,9.0,130.0,11.0,'1111122,1111122,1111122' 
NDBC,ioos:station:wmo:42056:1,2017-06-06T01:40:00Z,19.8020,-84.8570,5.0,9.0,130.0,11.0,'1111122,1111122,1111122' 
NDBC,ioos:station:wmo:42056:1,2017-06-06T02:50:00Z,19.8020,-84.8570,5.0,9.0,130.0,11.0,'1111122,1111122,1111122' 
NDBC,ioos:station:wmo:42056:1,2017-06-06T03:40:00Z,19.8020,-84.8570,5.0,9.0,140.0,11.0,'1111122,1111122,1111122' 
NDBC,ioos:station:wmo:42056:1,2017-06-06T04:40:00Z,19.8020,-84.8570,5.0,9.0,140.0,11.0,'1111122,1111122,1111122' 
NDBC,ioos:station:wmo:42056:1,2017-06-06T05:40:00Z,19.8020,-84.8570,5.0,9.0,140.0,11.0,'1111122,1111122,1111122' 
NDBC,ioos:station:wmo:42056:1,2017-06-06T06:40:00Z,19.8020,-84.8570,5.0,9.0,150.0,11.0,'1111122,1111122,1111122' 
NDBC,ioos:station:wmo:42056:1,2017-06-06T07:30:00Z,19.8020,-84.8570,5.0,9.0,150.0,12.0,'1111122,1111122,1111122' 
NDBC,ioos:station:wmo:42056:1,2017-06-06T08:50:00Z,19.8020,-84.8570,5.0,8.0,160.0,10.0,'1111122,1111122,1111122' 
NDBC,ioos:station:wmo:42056:1,2017-06-06T09:50:00Z,19.8020,-84.8570,5.0,8.0,160.0,10.0,'1111122,1111122,1111122' 
NDBC,ioos:station:wmo:42056:1,2017-06-06T10:40:00Z,19.8020,-84.8570,5.0,9.0,160.0,11.0,'1111122,1111122,1111122' 
NDBC,ioos:station:wmo:42056:1,2017-06-06T11:40:00Z,19.8020,-84.8570,5.0,8.0,160.0,10.0,'1111122,1111122,1111122' 
NDBC,ioos:station:wmo:42056:1,2017-06-06T12:40:00Z,19.8020,-84.8570,5.0,8.0,160.0,10.0,'1111122,1111122,1111122' 
NDBC,ioos:station:wmo:42056:1,2017-06-06T13:40:00Z,19.8020,-84.8570,5.0,8.0,160.0,10.0,'1111122,1111122,1111122' 
NDBC,ioos:station:wmo:42056:1,2017-06-06T14:50:00Z,19.8020,-84.8570,5.0,10.0,150.0,12.0,'1111122,1111122,1111122' 
NDBC,ioos:station:wmo:42056:1,2017-06-06T15:40:00Z,19.8020,-84.8570,5.0,9.0,150.0,12.0,'1111122,1111122,1111122' 
NDBC,ioos:station:wmo:42056:1,2017-06-06T16:40:00Z,19.8020,-84.8570,5.0,10.0,150.0,12.0,'1111122,1111122,1111122' 
NDBC,ioos:station:wmo:42056:1,2017-06-06T17:40:00Z,19.8020,-84.8570,5.0,11.0,150.0,14.0,'1111122,1111122,1111122' 
NDBC,ioos:station:wmo:42056:1,2017-06-06T18:40:00Z,19.8020,-84.8570,5.0,10.0,150.0,13.0,'1111122,1111122,1111122' 
NDBC,ioos:station:wmo:42056:1,2017-06-06T19:40:00Z,19.8020,-84.8570,5.0,9.0,150.0,11.0,'1111122,1111122,1111122' 
NDBC,ioos:station:wmo:42056:1,2017-06-06T20:40:00Z,19.8020,-84.8570,5.0,8.0,150.0,11.0,'1111122,1111122,1111122' 
NDBC,ioos:station:wmo:42056:1,2017-06-06T21:40:00Z,19.8020,-84.8570,5.0,7.0,160.0,10.0,'1111122,1111122,1111122' 
NDBC,ioos:station:wmo:42056:1,2017-06-06T22:30:00Z,19.8020,-84.8570,5.0,7.0,160.0,8.0,'1111122,1111122,1111122' 
NDBC,ioos:station:wmo:42056:1,2017-06-06T23:40:00Z,19.8020,-84.8570,5.0,6.0,160.0,7.0,'1111122,1111122,1111122' 
NDBC,ioos:station:wmo:42056:1,2017-06-07T00:40:00Z,19.8020,-84.8570,5.0,7.0,150.0,9.0,'1111122,1111122,1111122' 
NDBC,ioos:station:wmo:42056:1,2017-06-07T01:40:00Z,19.8020,-84.8570,5.0,8.0,150.0,10.0,'1111122,1111122,1111122' 
NDBC,ioos:station:wmo:42056:1,2017-06-07T02:30:00Z,19.8020,-84.8570,5.0,7.0,150.0,9.0,'1111122,1111122,1111122' 
NDBC,ioos:station:wmo:42056:1,2017-06-07T03:40:00Z,19.8020,-84.8570,5.0,7.0,150.0,9.0,'1111122,1111122,1111122' 
NDBC,ioos:station:wmo:42056:1,2017-06-07T04:40:00Z,19.8020,-84.8570,5.0,7.0,150.0,10.0,'1111122,1111122,1111122' 
NDBC,ioos:station:wmo:42056:1,2017-06-07T05:40:00Z,19.8020,-84.8570,5.0,7.0,150.0,9.0,'1111122,1111122,1111122' 
NDBC,ioos:station:wmo:42056:1,2017-06-07T06:50:00Z,19.8020,-84.8570,5.0,8.0,150.0,9.0,'1111122,1111122,1111122' 
NDBC,ioos:station:wmo:42056:1,2017-06-07T07:40:00Z,19.8020,-84.8570,5.0,8.0,140.0,9.0,'1111122,1111122,1111122' 
NDBC,ioos:station:wmo:42056:1,2017-06-07T08:40:00Z,19.8020,-84.8570,5.0,9.0,150.0,10.0,'1111122,1111122,1111122' 
NDBC,ioos:station:wmo:42056:1,2017-06-07T09:40:00Z,19.8020,-84.8570,5.0,9.0,150.0,11.0,'1111122,1111122,1111122' 
NDBC,ioos:station:wmo:42056:1,2017-06-07T10:40:00Z,19.8020,-84.8570,5.0,9.0,150.0,11.0,'1111122,1111122,1111122' 
NDBC,ioos:station:wmo:42056:1,2017-06-07T11:40:00Z,19.8020,-84.8570,5.0,9.0,160.0,11.0,'1111122,1111122,1111122' 
NDBC,ioos:station:wmo:42056:1,2017-06-07T12:50:00Z,19.8020,-84.8570,5.0,8.0,160.0,9.0,'1111122,1111122,1111122' 
NDBC,ioos:station:wmo:42056:1,2017-06-07T13:40:00Z,19.8020,-84.8570,5.0,7.0,160.0,9.0,'1111122,1111122,1111122' 
NDBC,ioos:station:wmo:42056:1,2017-06-07T14:40:00Z,19.8020,-84.8570,5.0,7.0,170.0,9.0,'1111122,1111122,1111122' 
NDBC,ioos:station:wmo:42056:1,2017-06-07T15:40:00Z,19.8020,-84.8570,5.0,8.0,160.0,9.0,'1111122,1111122,1111122' 
NDBC,ioos:station:wmo:42056:1,2017-06-07T16:30:00Z,19.8020,-84.8570,5.0,8.0,170.0,9.0,'1111122,1111122,1111122' 
NDBC,ioos:station:wmo:42056:1,2017-06-07T17:40:00Z,19.8020,-84.8570,5.0,8.0,160.0,9.0,'1111122,1111122,1111122' 
NDBC,ioos:station:wmo:42056:1,2017-06-07T18:50:00Z,19.8020,-84.8570,5.0,8.0,160.0,10.0,'1111122,1111122,1111122' 
NDBC,ioos:station:wmo:42056:1,2017-06-07T19:40:00Z,19.8020,-84.8570,5.0,8.0,170.0,10.0,'1111122,1111122,1111122' 
NDBC,ioos:station:wmo:42056:1,2017-06-07T20:30:00Z,19.8020,-84.8570,5.0,7.0,170.0,9.0,'1111122,1111122,1111122' 
NDBC,ioos:station:wmo:42056:1,2017-06-07T21:40:00Z,19.8020,-84.8570,5.0,7.0,170.0,8.0,'1111122,1111122,1111122' 
NDBC,ioos:station:wmo:42056:1,2017-06-07T22:40:00Z,19.8020,-84.8570,5.0,6.0,160.0,7.0,'1111122,1111122,1111122' 
NDBC,ioos:station:wmo:42056:1,2017-06-07T23:40:00Z,19.8020,-84.8570,5.0,7.0,170.0,8.0,'1111122,1111122,1111122' 
NDBC,ioos:station:wmo:42056:1,2017-06-08T00:50:00Z,19.8020,-84.8570,5.0,7.0,160.0,8.0,'1111122,1111122,1111122' 
NDBC,ioos:station:wmo:42056:1,2017-06-08T01:50:00Z,19.8020,-84.8570,5.0,8.0,160.0,9.0,'1111122,1111122,1111122' 
NDBC,ioos:station:wmo:42056:1,2017-06-08T02:40:00Z,19.8020,-84.8570,5.0,8.0,160.0,10.0,'1111122,1111122,1111122' 
NDBC,ioos:station:wmo:42056:1,2017-06-08T03:40:00Z,19.8020,-84.8570,5.0,8.0,160.0,10.0,'1111122,1111122,1111122' 
NDBC,ioos:station:wmo:42056:1,2017-06-08T04:50:00Z,19.8020,-84.8570,5.0,8.0,160.0,10.0,'1111122,1111122,1111122' 
NDBC,ioos:station:wmo:42056:1,2017-06-08T05:30:00Z,19.8020,-84.8570,5.0,8.0,160.0,10.0,'1111122,1111122,1111122' 
NDBC,ioos:station:wmo:42056:1,2017-06-08T06:40:00Z,19.8020,-84.8570,5.0,8.0,160.0,9.0,'1111122,1111122,1111122' 
NDBC,ioos:station:wmo:42056:1,2017-06-08T07:40:00Z,19.8020,-84.8570,5.0,8.0,170.0,10.0,'1111122,1111122,1111122' 
NDBC,ioos:station:wmo:42056:1,2017-06-08T08:40:00Z,19.8020,-84.8570,5.0,7.0,190.0,9.0,'1111122,1111122,1111122' 
NDBC,ioos:station:wmo:42056:1,2017-06-08T09:40:00Z,19.8020,-84.8570,5.0,8.0,220.0,10.0,'1111122,1111122,1111122' 
NDBC,ioos:station:wmo:42056:1,2017-06-08T10:30:00Z,19.8020,-84.8570,5.0,7.0,210.0,9.0,'1111122,1111122,1111122' 
NDBC,ioos:station:wmo:42056:1,2017-06-08T11:30:00Z,19.8020,-84.8570,5.0,6.0,220.0,7.0,'1111122,1111122,1111122' 
NDBC,ioos:station:wmo:42056:1,2017-06-08T12:40:00Z,19.8020,-84.8570,5.0,2.0,160.0,3.0,'1111122,1111122,1111122' 
NDBC,ioos:station:wmo:42056:1,2017-06-08T13:40:00Z,19.8020,-84.8570,5.0,3.0,170.0,4.0,'1111122,1111122,1111122' 
NDBC,ioos:station:wmo:42056:1,2017-06-08T14:40:00Z,19.8020,-84.8570,5.0,3.0,210.0,4.0,'1111122,1111122,1111122' 
NDBC,ioos:station:wmo:42056:1,2017-06-08T15:30:00Z,19.8020,-84.8570,5.0,2.0,190.0,3.0,'1111122,1111122,1111122' 
NDBC,ioos:station:wmo:42056:1,2017-06-08T16:40:00Z,19.8020,-84.8570,5.0,3.0,210.0,4.0,'1111122,1111122,1111122' 
NDBC,ioos:station:wmo:42056:1,2017-06-08T17:40:00Z,19.8020,-84.8570,5.0,3.0,190.0,4.0,'1111122,1111122,1111122' 
NDBC,ioos:station:wmo:42056:1,2017-06-08T18:40:00Z,19.8020,-84.8570,5.0,3.0,210.0,4.0,'1111122,1111122,1111122' 
NDBC,ioos:station:wmo:42056:1,2017-06-08T19:40:00Z,19.8020,-84.8570,5.0,2.0,240.0,3.0,'1111122,1111122,1111122' 
NDBC,ioos:station:wmo:42056:1,2017-06-08T20:40:00Z,19.8020,-84.8570,5.0,3.0,180.0,4.0,'1111122,1111122,1111122' 
NDBC,ioos:station:wmo:42056:1,2017-06-08T21:50:00Z,19.8020,-84.8570,5.0,2.0,170.0,3.0,'1111122,1111122,1111122' 
NDBC,ioos:station:wmo:42056:1,2017-06-08T22:30:00Z,19.8020,-84.8570,5.0,3.0,180.0,4.0,'1111122,1111122,1111122' 
NDBC,ioos:station:wmo:42056:1,2017-06-08T23:40:00Z,19.8020,-84.8570,5.0,2.0,140.0,3.0,'1111122,1111122,1111122' 
NDBC,ioos:station:wmo:42056:1,2017-06-09T00:40:00Z,19.8020,-84.8570,5.0,2.0,120.0,3.0,'1111122,1111122,1111122' 
NDBC,ioos:station:wmo:42056:1,2017-06-09T01:40:00Z,19.8020,-84.8570,5.0,2.0,120.0,3.0,'1111122,1111122,1111122' 
NDBC,ioos:station:wmo:42056:1,2017-06-09T02:40:00Z,19.8020,-84.8570,5.0,2.0,110.0,4.0,'1111122,1111122,1111122' 
NDBC,ioos:station:wmo:42056:1,2017-06-09T03:40:00Z,19.8020,-84.8570,5.0,4.0,100.0,5.0,'1111122,1111122,1111122' 
NDBC,ioos:station:wmo:42056:1,2017-06-09T04:40:00Z,19.8020,-84.8570,5.0,5.0,110.0,6.0,'1111122,1111122,1111122' 
NDBC,ioos:station:wmo:42056:1,2017-06-09T05:40:00Z,19.8020,-84.8570,5.0,7.0,150.0,8.0,'1111122,1111122,1111122' 
NDBC,ioos:station:wmo:42056:1,2017-06-09T06:50:00Z,19.8020,-84.8570,5.0,5.0,150.0,7.0,'1111122,1111122,1111122' 
NDBC,ioos:station:wmo:42056:1,2017-06-09T07:40:00Z,19.8020,-84.8570,5.0,6.0,130.0,9.0,'1111122,1111122,1111122' 
NDBC,ioos:station:wmo:42056:1,2017-06-09T08:40:00Z,19.8020,-84.8570,5.0,6.0,150.0,8.0,'1111122,1111122,1111122' 
NDBC,ioos:station:wmo:42056:1,2017-06-09T09:40:00Z,19.8020,-84.8570,5.0,7.0,130.0,9.0,'1111122,1111122,1111122' 
NDBC,ioos:station:wmo:42056:1,2017-06-09T10:40:00Z,19.8020,-84.8570,5.0,8.0,130.0,9.0,'1111122,1111122,1111122' 
NDBC,ioos:station:wmo:42056:1,2017-06-09T11:40:00Z,19.8020,-84.8570,5.0,9.0,120.0,11.0,'1111122,1111122,1111122' 
NDBC,ioos:station:wmo:42056:1,2017-06-09T12:50:00Z,19.8020,-84.8570,5.0,8.0,150.0,10.0,'1111122,1111122,1111122' 
NDBC,ioos:station:wmo:42056:1,2017-06-09T13:40:00Z,19.8020,-84.8570,5.0,10.0,160.0,12.0,'1111122,1111122,1111122' 
NDBC,ioos:station:wmo:42056:1,2017-06-09T14:40:00Z,19.8020,-84.8570,5.0,10.0,170.0,12.0,'1111122,1111122,1111122' 
NDBC,ioos:station:wmo:42056:1,2017-06-09T15:40:00Z,19.8020,-84.8570,5.0,9.0,180.0,11.0,'1111122,1111122,1111122' 
NDBC,ioos:station:wmo:42056:1,2017-06-09T16:30:00Z,19.8020,-84.8570,5.0,9.0,200.0,11.0,'1111122,1111122,1111122' 
NDBC,ioos:station:wmo:42056:1,2017-06-09T17:40:00Z,19.8020,-84.8570,5.0,6.0,200.0,7.0,'1111122,1111122,1111122' 